Regional Weather Roundup
Issued by NWS

Home | Current Version | Previous Version | Graphics & Text | Print | Product List | Glossary On
Versions: 1 2 3 4 5 6 7 8 9 10 11 12 13 14 15 16 17 18 19 20 21 22 23 24 25 26 27 28 29 30 31 32 33 34 35 36 37 38 39 40 41 42 43 44 45 46 47 48 49 50
000
ASUS43 KFSD 292310
RWRSD

WEATHER ROUNDUP FOR SOUTH DAKOTA
NATIONAL WEATHER SERVICE SIOUX FALLS SD
600 PM CDT MON JUN 29 2015

NOTE: "FAIR" INDICATES FEW OR NO CLOUDS BELOW 12,000 FEET WITH NO
SIGNIFICANT WEATHER AND/OR OBSTRUCTIONS TO VISIBILITY.


SDZ001>005-009-010-012>017-300000-
NORTHWEST AND NORTH CENTRAL SOUTH DAKOTA

CITY           SKY/WX    TMP DP  RH WIND       PRES   REMARKS
BUFFALO          N/A     92  54  27 W14       29.95F
FAITH            N/A     91  57  31 VRB6      29.99F
MOBRIDGE       MOSUNNY   93  55  27 NW8       29.91F
$$

SDZ012>016-024>037-041>051-057-063-072>074-300000-
SOUTHWEST AND SOUTH CENTRAL SOUTH DAKOTA

CITY           SKY/WX    TMP DP  RH WIND       PRES   REMARKS
RAPID CTY ARPT SUNNY     89  58  34 E6        30.05S
PIERRE         SUNNY     89  61  38 NW9       29.93S
CUSTER         PTSUNNY   64  59  83 S6        30.24F
PHILIP         SUNNY     92  62  36 CALM      29.97F
PINE RIDGE     SUNNY     89  54  30 NE6       30.07S
SPEARFISH      FAIR      84  61  45 CALM      30.11F
WINNER         FAIR      93  49  22 NW10      29.96F
$$

SDZ004>011-016>023-039-040-300000-
NORTHEAST SOUTH DAKOTA

CITY           SKY/WX    TMP DP  RH WIND       PRES   REMARKS
ABERDEEN       MOSUNNY   89  62  40 N10       29.88F
WATERTOWN      SUNNY     81  60  48 NW10      29.90F
BROOKINGS      SUNNY     81  63  54 NW9       29.92S
SISSETON         N/A     81  63  54 N12       29.86R
$$

SDZ017-020-022-023-036>040-048>070-300000-
SOUTHEAST SOUTH DAKOTA

CITY           SKY/WX    TMP DP  RH WIND       PRES   REMARKS
SIOUX FALLS    SUNNY     82  59  45 NW7       29.91S HAZE
HURON          SUNNY     86  63  45 N7        29.89F
CHAMBERLAIN    SUNNY     91  55  30 NW9       29.93S
MITCHELL       SUNNY     87  60  40 CALM      29.91F
YANKTON        SUNNY     84  61  45 N5        29.91S
$$

ABBREVIATIONS USED IN REMARKS
   TC - TEMPERATURE IN CELSIUS
  WCI - WIND CHILL INDEX
   HX - HEAT INDEX
  VSB - VISIBILITY



USA.gov is the U.S. government's official web portal to all federal, state and local government web resources and services.